Weather History for Central Park, NY

Change the Weather History Date:

Friday, February 15, 2013

  Actual Average Record
Temperature  
Mean Temperature 46 °F 35 °F  
Max Temperature 55 °F 42 °F 73 °F (1949)
Min Temperature 37 °F 29 °F -8 °F (1943)
Degree Days  
Heating Degree Days 19 30  
Month to date heating degree days 486 463  
Since 1 July heating degree days 2995 3152  
Cooling Degree Days 0 0  
Month to date cooling degree days 0 0  
Year to date cooling degree days 0 0  
Moisture  
Dew Point 31 °F    
Average Humidity 59    
Maximum Humidity 76    
Minimum Humidity 41    
Precipitation  
Precipitation 0.00 in 0.10 in 1.73 in (1984)
Month to date precipitation 2.11 1.60  
Year to date precipitation 4.87 5.25  
Snow  
Snow 0.00 in 0.40 in 5.40 in (1922)
Month to date snowfall 12.2 5.0  
Since 1 July snowfall 18.8 17.1  
Snow Depth 0.00 in    
Sea Level Pressure  
Sea Level Pressure 29.97 in    
Wind  
Wind Speed 6 mph (SW)    
Max Wind Speed 16 mph    
Max Gust Speed 24 mph    
Visibility 8 miles    
Events      
T = Trace of Precipitation, MM = Missing Value Source: NWS Daily Summary

Daily Weather History Graph

Daily Weather History Graph

Search for Another Location

Airport:

Trip Planner

Search our weather history database for the weather conditions in past years. The results will help you decide how hot, cold, wet, or windy it might be!

Date:

Astronomy

Feb. 15, 2013 Rise Set
Actual Time 6:49 AM EST 5:30 PM EST
Civil Twilight 6:21 AM EST 5:59 PM EST
Nautical Twilight 5:49 AM EST 6:31 PM EST
Astronomical Twilight 5:17 AM EST 7:02 PM EST
Moon 9:21 AM EST (2/15) 11:32 PM EST (2/15)
Length of Visible Light 11h 37m
Length of Day
10h 41m
Waxing Crescent, 30% of the Moon is Illuminated
Feb 15
Waxing Crescent
Feb 17
First Quarter
Feb 25
Full
Mar 4
Last Quarter
Mar 11
New

Hourly Weather History & Observations

Time (EST) Temp. Windchill Dew Point Humidity Pressure Visibility Wind Dir Wind Speed Gust Speed Precip Events Conditions
12:51 AM 39.9 °F 35.8 °F 27.0 °F 60% 30.00 in 8.0 mi SW 5.8 mph - N/A   Clear
1:51 AM 39.0 °F 32.8 °F 28.0 °F 65% 30.00 in 8.0 mi SW 9.2 mph - N/A   Partly Cloudy
2:51 AM 39.0 °F 31.8 °F 28.0 °F 65% 29.99 in 8.0 mi West 11.5 mph - N/A   Overcast
3:51 AM 37.9 °F 32.7 °F 28.9 °F 70% 29.99 in 7.0 mi Variable 6.9 mph - N/A   Clear
4:51 AM 37.9 °F 31.5 °F 28.9 °F 70% 30.00 in 7.0 mi WSW 9.2 mph - N/A   Clear
5:51 AM 39.0 °F 31.8 °F 30.0 °F 70% 29.99 in 8.0 mi WSW 11.5 mph 17.3 mph N/A   Clear
6:51 AM 37.9 °F 32.7 °F 30.0 °F 73% 29.99 in 6.0 mi West 6.9 mph - N/A   Haze
7:51 AM 37.9 °F 32.7 °F 30.0 °F 73% 30.00 in 5.0 mi Variable 6.9 mph - N/A   Haze
8:51 AM 39.0 °F 35.7 °F 30.9 °F 73% 30.01 in 5.0 mi Variable 4.6 mph - N/A   Haze
9:51 AM 43.0 °F 40.3 °F 30.9 °F 62% 30.01 in 6.0 mi Variable 4.6 mph - N/A   Haze
10:51 AM 45.0 °F 42.6 °F 30.9 °F 58% 30.01 in 6.0 mi SSW 4.6 mph - N/A   Haze
11:51 AM 48.0 °F - 30.9 °F 52% 29.99 in 7.0 mi Calm Calm - N/A   Clear
12:51 PM 50.0 °F - 30.0 °F 46% 29.96 in 9.0 mi Variable 5.8 mph - N/A   Clear
1:51 PM 53.1 °F - 30.9 °F 43% 29.94 in 10.0 mi Variable 3.5 mph - N/A   Clear
2:51 PM 53.1 °F - 32.0 °F 45% 29.92 in 10.0 mi Variable 3.5 mph - N/A   Clear
3:51 PM 50.0 °F - 35.1 °F 57% 29.92 in 8.0 mi SSE 6.9 mph - N/A   Clear
4:51 PM 48.0 °F - 36.0 °F 63% 29.93 in 9.0 mi SSE 9.2 mph - N/A   Partly Cloudy
5:51 PM 46.9 °F - 36.0 °F 66% 29.93 in 10.0 mi South 4.6 mph - N/A   Partly Cloudy
6:51 PM 45.0 °F 42.6 °F 36.0 °F 71% 29.92 in 9.0 mi NE 4.6 mph - N/A   Clear
7:51 PM 44.1 °F - 36.0 °F 73% 29.91 in 8.0 mi Calm Calm - N/A   Partly Cloudy
8:51 PM 46.0 °F 43.9 °F 36.0 °F 68% 29.92 in 9.0 mi NNE 4.6 mph - N/A   Overcast
9:51 PM 46.9 °F - 30.9 °F 54% 29.93 in 10.0 mi NNE 3.5 mph - N/A   Overcast
10:51 PM 46.0 °F 43.1 °F 28.9 °F 51% 29.95 in 10.0 mi Variable 5.8 mph - N/A   Overcast
11:51 PM 41.0 °F 33.9 °F 30.9 °F 67% 29.96 in 10.0 mi NW 12.7 mph 21.9 mph N/A   Overcast